GW1753 Weather Reports


Display with metric or nautical units.
time (UTC)temp
F
wind
direction
speed
MPH
gust
MPH
rain 1hr
in
rain 24hr
in
rain mn
in
humidity
%
barometer
mb
20260503200009 73 266 8.0 13.0 0.00 0.00 0.00 21 1013.2
20260503195506 76 270 5.0 13.0 0.00 0.00 0.00 22 1013.2
20260503195002 73 283 6.0 13.0 0.00 0.00 0.00 21 1013.4
20260503194500 73 313 13.0 16.0 0.00 0.00 0.00 21 1013.4
20260503193955 73 282 4.0 9.0 0.00 0.00 0.00 22 1013.5
20260503193451 74 278 4.0 14.0 0.00 0.00 0.00 20 1013.8
20260503192946 73 276 6.0 11.0 0.00 0.00 0.00 22 1013.8
20260503192443 74 252 4.0 13.0 0.00 0.00 0.00 22 1014.0
20260503191938 73 305 9.0 14.0 0.00 0.00 0.00 21 1014.0
20260503191436 73 290 7.0 11.0 0.00 0.00 0.00 22 1013.9
20260503190932 74 279 10.0 15.0 0.00 0.00 0.00 20 1014.0
20260503190430 74 295 9.0 15.0 0.00 0.00 0.00 21 1014.1
20260503185927 73 285 7.0 11.0 0.00 0.00 0.00 21 1014.1
20260503185423 72 272 5.0 11.0 0.00 0.00 0.00 22 1014.2
20260503184922 73 308 8.0 13.0 0.00 0.00 0.00 21 1014.3
20260503184419 73 256 8.0 14.0 0.00 0.00 0.00 22 1014.5
20260503183916 72 297 6.0 10.0 0.00 0.00 0.00 22 1014.4
20260503183412 73 261 8.0 15.0 0.00 0.00 0.00 23 1014.4
20260503182909 72 302 7.0 13.0 0.00 0.00 0.00 23 1014.6
20260503182409 72 285 6.0 14.0 0.00 0.00 0.00 24 1014.7
20260503181905 72 281 6.0 11.0 0.00 0.00 0.00 24 1014.9
20260503181402 72 276 5.0 8.0 0.00 0.00 0.00 25 1015.0
20260503180858 72 290 7.0 14.0 0.00 0.00 0.00 25 1015.2
20260503180356 71 282 6.0 8.0 0.00 0.00 0.00 26 1015.2
20260503175853 72 344 6.0 9.0 0.00 0.00 0.00 25 1015.2
20260503175351 70 295 3.0 7.0 0.00 0.00 0.00 28 1015.3
20260503174846 71 299 7.0 11.0 0.00 0.00 0.00 28 1015.2
20260503174345 71 292 4.0 11.0 0.00 0.00 0.00 27 1015.4
20260503173839 69 280 3.0 10.0 0.00 0.00 0.00 29 1015.3
20260503173336 68 262 6.0 8.0 0.00 0.00 0.00 29 1015.4
20260503172833 68 243 4.0 8.0 0.00 0.00 0.00 29 1015.6
20260503172331 68 283 4.0 10.0 0.00 0.00 0.00 31 1015.5
20260503171826 67 291 3.0 9.0 0.00 0.00 0.00 31 1015.4
20260503171323 68 263 6.0 11.0 0.00 0.00 0.00 31 1015.6
20260503170821 68 276 5.0 13.0 0.00 0.00 0.00 33 1015.5
20260503170317 67 272 9.0 11.0 0.00 0.00 0.00 33 1015.6
20260503150709 52 286 6.0 7.0 0.00 0.00 0.00 67 1016.5
20260503150205 52 286 5.0 8.0 0.00 0.00 0.00 68 1016.6
20260503140130 45 238 4.0 6.0 0.00 0.00 0.00 78 1017.1
20260503131059 42 273 3.0 4.0 0.00 0.00 0.00 85 1016.8
20260503130556 42 280 3.0 4.0 0.00 0.00 0.00 86 1016.7
20260503110447 39 289 0.0 1.0 0.00 0.00 0.00 90 1017.4
20260503090338 42 305 0.0 0.0 0.00 0.00 0.00 81 1018.5
20260503081305 45 314 0.0 0.0 0.00 0.00 0.00 78 1018.1
20260503080801 44 337 0.0 0.0 0.00 0.00 0.00 81 1018.2
20260503080259 43 303 0.0 0.0 0.00 0.00 0.00 82 1018.2
20260503072735 47 285 0.0 0.0 0.00 0.00 0.00 74 1018.5
20260503072232 47 311 0.0 0.0 0.00 0.00 0.00 74 1018.4
20260503071728 47 313 0.0 0.0 0.00 0.00 0.00 74 1018.5
20260503071226 48 325 0.0 0.0 0.00 0.00 0.00 74 1018.6
20260503070722 47 284 0.0 0.0 0.00 0.00 0.00 75 1018.7
20260503070220 46 331 0.0 0.0 0.00 0.00 0.00 74 1018.5
20260503060150 51 307 0.0 0.0 0.00 0.00 0.00 66 1018.6
20260503054637 51 260 0.0 0.0 0.00 0.00 0.00 64 1018.9
20260503054135 52 228 2.0 4.0 0.00 0.00 0.00 64 1018.8
20260503053633 52 258 4.0 6.0 0.00 0.00 0.00 62 1018.9
20260503053131 53 208 0.0 0.0 0.00 0.00 0.00 61 1018.9
20260503052627 54 213 1.0 3.0 0.00 0.00 0.00 58 1018.9
20260503052124 54 220 5.0 7.0 0.00 0.00 0.00 57 1019.0
20260503051619 54 215 1.0 2.0 0.00 0.00 0.00 58 1018.9
20260503051117 55 210 0.0 3.0 0.00 0.00 0.00 57 1019.0
20260503050613 55 210 6.0 7.0 0.00 0.00 0.00 58 1019.2
20260503050110 54 226 3.0 4.0 0.00 0.00 0.00 58 1018.9
20260503045608 55 238 0.0 2.0 0.00 0.00 0.00 59 1019.0
20260503045104 55 230 2.0 7.0 0.00 0.00 0.00 58 1019.1
20260503044601 55 216 4.0 4.0 0.00 0.00 0.00 59 1019.0
20260503044059 56 231 4.0 6.0 0.00 0.00 0.00 59 1019.0
20260503043555 57 202 6.0 8.0 0.00 0.00 0.00 54 1019.4
20260503043052 57 217 5.0 8.0 0.00 0.00 0.00 53 1019.2
20260503042549 58 266 2.0 6.0 0.00 0.00 0.00 54 1019.3
20260503042045 58 288 1.0 7.0 0.00 0.00 0.00 52 1019.7
20260503041542 59 316 5.0 8.0 0.00 0.00 0.00 49 1019.7
20260503041039 59 285 7.0 10.0 0.00 0.00 0.00 49 1019.8
20260503040537 59 343 4.0 7.0 0.00 0.00 0.00 47 1019.9
20260503040034 57 330 8.0 14.0 0.00 0.00 0.00 46 1019.4
20260503035530 57 326 0.0 0.0 0.00 0.00 0.00 43 1019.1
20260503035028 58 332 0.0 0.0 0.00 0.00 0.00 42 1018.9
20260503034525 59 39 0.0 0.0 0.00 0.00 0.00 40 1018.8
20260503034022 59 91 0.0 0.0 0.00 0.00 0.00 40 1018.9
20260503033519 59 83 0.0 0.0 0.00 0.00 0.00 41 1018.8
20260503033018 59 82 0.0 0.0 0.00 0.00 0.00 41 1018.7
20260503032515 59 74 0.0 1.0 0.00 0.00 0.00 41 1018.6
20260503032013 59 83 0.0 1.0 0.00 0.00 0.00 41 1018.5
20260503031511 60 68 3.0 3.0 0.00 0.00 0.00 39 1018.7
20260503031007 60 51 2.0 3.0 0.00 0.00 0.00 39 1018.5
20260503030504 60 56 1.0 2.0 0.00 0.00 0.00 39 1018.6
20260503030000 61 88 0.0 3.0 0.00 0.00 0.00 38 1018.4
20260503025457 61 342 0.0 0.0 0.00 0.00 0.00 38 1018.2
20260503024955 62 295 0.0 0.0 0.00 0.00 0.00 38 1018.4
20260503024451 62 297 0.0 0.0 0.00 0.00 0.00 38 1018.4
20260503023949 61 297 0.0 0.0 0.00 0.00 0.00 38 1018.1
20260503023445 62 296 0.0 0.0 0.00 0.00 0.00 38 1018.2
20260503022942 62 294 0.0 0.0 0.00 0.00 0.00 38 1018.2
20260503022437 63 303 0.0 0.0 0.00 0.00 0.00 37 1018.2
20260503021933 63 50 0.0 0.0 0.00 0.00 0.00 36 1018.4
20260503021430 64 26 0.0 0.0 0.00 0.00 0.00 36 1018.1
20260503020927 64 347 0.0 0.0 0.00 0.00 0.00 36 1018.0
20260503020425 64 305 0.0 0.0 0.00 0.00 0.00 36 1018.2
20260503015921 64 276 0.0 0.0 0.00 0.00 0.00 37 1018.1
20260503015418 64 307 0.0 0.0 0.00 0.00 0.00 36 1018.4
20260503014914 64 322 0.0 0.0 0.00 0.00 0.00 35 1018.1
20260503014411 65 46 0.0 0.0 0.00 0.00 0.00 35 1018.5
20260503013909 66 55 0.0 0.0 0.00 0.00 0.00 35 1018.1
20260503013406 66 38 0.0 0.0 0.00 0.00 0.00 35 1018.2
20260503012903 67 7 0.0 0.0 0.00 0.00 0.00 34 1018.2
20260503012401 66 306 0.0 0.0 0.00 0.00 0.00 34 1018.2
20260503011857 66 317 0.0 2.0 0.00 0.00 0.00 33 1018.2
20260503011354 67 316 1.0 2.0 0.00 0.00 0.00 32 1018.5
20260503010851 66 287 0.0 0.0 0.00 0.00 0.00 34 1018.5
20260503010348 66 283 0.0 1.0 0.00 0.00 0.00 33 1018.5
20260503005844 66 274 0.0 3.0 0.00 0.00 0.00 33 1018.5
20260503005342 66 288 0.0 0.0 0.00 0.00 0.00 33 1018.5
20260503004838 66 292 0.0 2.0 0.00 0.00 0.00 33 1018.6
20260503004336 66 280 0.0 2.0 0.00 0.00 0.00 34 1018.6
20260503003833 66 295 0.0 1.0 0.00 0.00 0.00 34 1018.7
20260503003330 67 315 0.0 0.0 0.00 0.00 0.00 34 1018.8
20260503002827 67 319 0.0 0.0 0.00 0.00 0.00 34 1018.8
20260503002324 67 183 0.0 0.0 0.00 0.00 0.00 34 1018.7
20260503001820 67 251 0.0 0.0 0.00 0.00 0.00 34 1018.8
20260503001316 67 111 0.0 0.0 0.00 0.00 0.00 33 1018.9
20260503000814 67 207 0.0 1.0 0.00 0.00 0.00 34 1018.7
20260503000312 68 126 0.0 1.0 0.00 0.00 0.00 33 1018.8
20260502235808 69 64 0.0 2.0 0.00 0.00 0.00 33 1018.9
20260502235306 69 60 0.0 3.0 0.00 0.00 0.00 32 1018.8
20260502234802 70 63 4.0 6.0 0.00 0.00 0.00 31 1018.8
20260502234259 69 55 0.0 4.0 0.00 0.00 0.00 32 1018.9
20260502233755 70 38 0.0 2.0 0.00 0.00 0.00 32 1019.0
20260502233252 70 46 1.0 2.0 0.00 0.00 0.00 31 1019.2
20260502232748 70 300 0.0 3.0 0.00 0.00 0.00 31 1019.1
20260502232245 71 42 1.0 3.0 0.00 0.00 0.00 31 1019.1
20260502231742 70 307 0.0 2.0 0.00 0.00 0.00 31 1019.4
20260502231240 70 248 0.0 2.0 0.00 0.00 0.00 31 1019.4
20260502230738 70 326 1.0 4.0 0.00 0.00 0.00 31 1019.6
20260502230236 71 334 2.0 4.0 0.00 0.00 0.00 31 1019.4
20260502225732 70 327 0.0 2.0 0.00 0.00 0.00 31 1019.6
20260502225229 71 333 4.0 7.0 0.00 0.00 0.00 31 1019.7
20260502224725 71 338 4.0 7.0 0.00 0.00 0.00 31 1019.8
20260502224222 69 338 0.0 4.0 0.00 0.00 0.00 33 1019.8
20260502223720 69 336 3.0 4.0 0.00 0.00 0.00 32 1019.9
20260502223218 69 347 0.0 0.0 0.00 0.00 0.00 32 1019.8
20260502222715 69 312 0.0 0.0 0.00 0.00 0.00 32 1020.0
20260502222212 68 214 1.0 4.0 0.00 0.00 0.00 33 1020.0
20260502221708 68 210 4.0 9.0 0.00 0.00 0.00 34 1020.0
20260502221204 69 232 5.0 7.0 0.00 0.00 0.00 34 1020.2
20260502220700 69 289 0.0 1.0 0.00 0.00 0.00 32 1020.3
20260502220157 68 265 3.0 6.0 0.00 0.00 0.00 34 1020.3
20260502215654 69 318 4.0 7.0 0.00 0.00 0.00 33 1020.2
20260502215151 69 240 2.0 4.0 0.00 0.00 0.00 34 1020.3
20260502214648 69 310 5.0 10.0 0.00 0.00 0.00 33 1020.6
20260502214145 69 357 0.0 4.0 0.00 0.00 0.00 32 1020.6
20260502213642 69 56 0.0 0.0 0.00 0.00 0.00 33 1020.6
20260502213140 69 218 0.0 3.0 0.00 0.00 0.00 32 1020.9
20260502212638 69 341 2.0 6.0 0.00 0.00 0.00 33 1021.0
20260502212136 69 296 3.0 9.0 0.00 0.00 0.00 34 1021.1
20260502211631 66 5 0.0 3.0 0.00 0.00 0.00 35 1021.0
20260502211124 66 5 0.0 3.0 0.00 0.00 0.00 35 1021.0
20260502210621 68 164 0.0 1.0 0.00 0.00 0.00 34 1020.9
20260502210117 68 251 0.0 0.0 0.00 0.00 0.00 34 1021.0